Location: Unspecified
(43.8044°N, 11.0278°E)
Time: 22:35:27
(UTC+02:00)

CZ-3 Stage 3 - Visible Passes

Search period start: 23 May 2018 00:00
Search period end: 02 June 2018 00:00
Orbit: 422 x 34773 km, 30.9° (Epoch: 22 May)

Date Brightness Start Highest point End Pass type
(mag) Time Alt. Az. Time Alt. Az. Time Alt. Az.
23 May 9.4 00:52:19 10° ESE 03:05:10 23° ESE 03:58:18 10° E visible
24 May 6.7 03:12:46 10° SSW 06:30:45 22° SW 11:18:53 10° ESE visible
25 May 8.9 00:28:00 10° SE 07:07:28 55° SSE 07:41:25 10° E visible
26 May 9.4 00:36:46 10° ESE 02:54:50 23° ESE 03:49:12 10° E visible
27 May 6.7 03:08:03 11° SSW 06:18:44 23° SW 11:09:16 10° ESE visible
28 May 8.8 00:13:31 10° SE 06:57:20 56° SSE 07:31:48 10° E visible
29 May 9.3 00:21:18 10° ESE 02:44:26 24° ESE 03:39:59 10° E visible
30 May 6.8 03:06:07 13° SSW 06:06:42 24° SW 10:59:37 10° ESE visible
30 May 8.8 23:59:06 10° SE 06:47:09 57° SSE 07:22:10 10° E visible
01 Jun 9.3 00:05:56 10° ESE 02:33:58 25° ESE 03:30:41 10° E visible
